This is the latest recevied weather packets stored in our database for station/object MM1PTT-13. If no packets are shown the sender has not sent any weather packets the latest 10 day(s).
| Time | Temp. | Humidity | Pressure | Rain* | Wind** | Luminosity | Snow |
|---|---|---|---|---|---|---|---|
| 1777551642 | 16.67° C | 50% | 994.6 hPa | 0 mm | - | 1294 W/m² | - |
| 1777551343 | 17.22° C | 49% | 994.9 hPa | 0 mm | - | 1301 W/m² | - |
| 1777551043 | 17.22° C | 52% | 994.9 hPa | 0 mm | - | 1298 W/m² | - |
| 1777550743 | 16.67° C | 50% | 994.9 hPa | 0 mm | - | 1325 W/m² | - |
| 1777550444 | 16.67° C | 50% | 994.9 hPa | 0 mm | - | - | - |
| 1777550143 | 16.11° C | 49% | 995.3 hPa | 0 mm | - | - | - |
| 1777549842 | 16.67° C | 47% | 995.3 hPa | 0 mm | - | 1317 W/m² | - |
| 1777549543 | 16.11° C | 49% | 995.3 hPa | 0 mm | - | 1305 W/m² | - |
| 1777549243 | 16.67° C | 49% | 995.3 hPa | 0 mm | - | 1286 W/m² | - |
| 1777548943 | 16.11° C | 49% | 995.6 hPa | 0 mm | - | 1301 W/m² | - |
| 1777548642 | 16.11° C | 49% | 995.6 hPa | 0 mm | - | 1309 W/m² | - |
| 1777548342 | 16.11° C | 48% | 995.9 hPa | 0 mm | - | 1274 W/m² | - |
| 1777548043 | 15.56° C | 49% | 995.6 hPa | 0 mm | - | 1298 W/m² | - |
| 1777547743 | 15.56° C | 50% | 995.9 hPa | 0 mm | - | - | - |
| 1777547442 | 15° C | 50% | 995.9 hPa | 0 mm | - | - | - |
| 1777547143 | 15° C | 49% | 995.9 hPa | 0 mm | - | - | - |
| 1777546844 | 15° C | 49% | 995.9 hPa | 0 mm | - | - | - |
| 1777546543 | 15° C | 50% | 995.9 hPa | 0 mm | - | - | - |
| 1777546243 | 15° C | 49% | 995.9 hPa | 0 mm | - | - | - |
| 1777545943 | 15° C | 51% | 995.9 hPa | 0 mm | - | 998 W/m² | - |
| 1777545642 | 15° C | 52% | 995.9 hPa | 0 mm | - | 985 W/m² | - |
| 1777545343 | 14.44° C | 52% | 996.3 hPa | 0 mm | - | 979 W/m² | - |
| 1777545042 | 14.44° C | 53% | 996.3 hPa | 0 mm | - | 959 W/m² | - |
| 1777544742 | 14.44° C | 52% | 996.3 hPa | 0 mm | - | 927 W/m² | - |
| 1777544442 | 14.44° C | 53% | 996.6 hPa | 0 mm | - | 947 W/m² | - |
* Rain latest hour (hover to see other rain measurements)
** Current wind speed in m/s (hover to see current wind gust speed)